This is the latest recevied weather packets stored in our database for station/object KI7MOQ. If no packets are shown the sender has not sent any weather packets the latest 10 day(s).
| Time | Temp. | Humidity | Pressure | Rain* | Wind** | Luminosity | Snow |
|---|---|---|---|---|---|---|---|
| 1778018293 | 17.22° C | 72% | 1018.6 hPa | 0 mm | - | 96 W/m² | - |
| 1778017990 | 17.22° C | 73% | 1018.6 hPa | 0 mm | - | 98 W/m² | - |
| 1778017688 | 17.22° C | 73% | 1018.7 hPa | 0 mm | - | 94 W/m² | - |
| 1778017385 | 17.22° C | 73% | 1018.6 hPa | 0 mm | - | 98 W/m² | - |
| 1778017082 | 17.22° C | 73% | 1018.7 hPa | 0 mm | - | 89 W/m² | - |
| 1778016780 | 17.22° C | 73% | 1018.8 hPa | 0 mm | - | 78 W/m² | - |
| 1778016475 | 16.67° C | 74% | 1018.8 hPa | 0 mm | - | 89 W/m² | - |
| 1778016173 | 16.67° C | 74% | 1018.8 hPa | 0 mm | - | 108 W/m² | - |
| 1778015870 | 16.67° C | 75% | 1018.8 hPa | 0 mm | - | 107 W/m² | - |
| 1778015568 | 16.67° C | 75% | 1018.9 hPa | 0 mm | - | 105 W/m² | - |
| 1778015263 | 16.67° C | 75% | 1018.9 hPa | 0 mm | - | 103 W/m² | - |
| 1778014960 | 16.67° C | 75% | 1019 hPa | 0 mm | - | 99 W/m² | - |
| 1778014657 | 16.67° C | 77% | 1018.8 hPa | 0 mm | - | 107 W/m² | - |
| 1778014356 | 16.11° C | 77% | 1018.9 hPa | 0 mm | - | 121 W/m² | - |
| 1778014052 | 16.11° C | 77% | 1019.1 hPa | 0 mm | - | 130 W/m² | - |
| 1778013750 | 16.11° C | 76% | 1019 hPa | 0 mm | - | 145 W/m² | - |
| 1778013447 | 16.11° C | 77% | 1019.2 hPa | 0 mm | - | 171 W/m² | - |
| 1778013144 | 15.56° C | 78% | 1019.1 hPa | 0 mm | - | 177 W/m² | - |
| 1778012839 | 15.56° C | 79% | 1019.1 hPa | 0 mm | - | 120 W/m² | - |
| 1778012535 | 15.56° C | 78% | 1019.3 hPa | 0 mm | - | 74 W/m² | - |
| 1778012232 | 15.56° C | 79% | 1019.1 hPa | 0 mm | - | 54 W/m² | - |
| 1778011930 | 15.56° C | 79% | 1019.3 hPa | 0 mm | - | 44 W/m² | - |
| 1778011628 | 15.56° C | 79% | 1019.2 hPa | 0 mm | - | 52 W/m² | - |
| 1778011325 | 15° C | 80% | 1019.2 hPa | 0 mm | - | 61 W/m² | - |
| 1778011020 | 15° C | 79% | 1019.1 hPa | 0 mm | - | 78 W/m² | - |
* Rain latest hour (hover to see other rain measurements)
** Current wind speed in m/s (hover to see current wind gust speed)